;"Summenlastgang aller Einspeisungen
Umspannung MS/NS
+ Bezug vorgelagertes Netz
+ dez. Erzeugung"
Arbeit;1.049.452.057
H�chstleistung;204.735
Zeitpunkt;05.12.2023 18:00
01.01.2023 00:00;99.019
01.01.2023 00:15;97.061
01.01.2023 00:30;96.426
01.01.2023 00:45;95.958
01.01.2023 01:00;94.666
01.01.2023 01:15;93.578
01.01.2023 01:30;91.716
01.01.2023 01:45;90.275
01.01.2023 02:00;87.812
01.01.2023 02:15;85.537
01.01.2023 02:30;84.007
01.01.2023 02:45;81.816
01.01.2023 03:00;81.517
01.01.2023 03:15;78.747
01.01.2023 03:30;78.665
01.01.2023 03:45;77.756
01.01.2023 04:00;76.004
01.01.2023 04:15;75.501
01.01.2023 04:30;73.937
01.01.2023 04:45;73.146
01.01.2023 05:00;74.617
01.01.2023 05:15;72.322
01.01.2023 05:30;73.542
01.01.2023 05:45;74.348
01.01.2023 06:00;72.121
01.01.2023 06:15;73.275
01.01.2023 06:30;72.951
01.01.2023 06:45;73.037
01.01.2023 07:00;75.549
01.01.2023 07:15;77.390
01.01.2023 07:30;78.762
01.01.2023 07:45;80.671
01.01.2023 08:00;82.271
01.01.2023 08:15;83.135
01.01.2023 08:30;86.356
01.01.2023 08:45;89.323
01.01.2023 09:00;92.283
01.01.2023 09:15;98.762
01.01.2023 09:30;101.845
01.01.2023 09:45;106.250
01.01.2023 10:00;108.869
01.01.2023 10:15;114.507
01.01.2023 10:30;117.677
01.01.2023 10:45;119.892
01.01.2023 11:00;123.984
01.01.2023 11:15;124.858
01.01.2023 11:30;129.259
01.01.2023 11:45;131.268
01.01.2023 12:00;134.297
01.01.2023 12:15;136.856
01.01.2023 12:30;137.491
01.01.2023 12:45;135.869
01.01.2023 13:00;133.993
01.01.2023 13:15;135.367
01.01.2023 13:30;135.925
01.01.2023 13:45;135.904
01.01.2023 14:00;134.179
01.01.2023 14:15;134.893
01.01.2023 14:30;134.387
01.01.2023 14:45;131.501
01.01.2023 15:00;133.240
01.01.2023 15:15;133.557
01.01.2023 15:30;135.128
01.01.2023 15:45;137.360
01.01.2023 16:00;140.564
01.01.2023 16:15;145.558
01.01.2023 16:30;149.024
01.01.2023 16:45;154.640
01.01.2023 17:00;158.532
01.01.2023 17:15;161.799
01.01.2023 17:30;161.648
01.01.2023 17:45;164.708
01.01.2023 18:00;164.409
01.01.2023 18:15;164.859
01.01.2023 18:30;163.183
01.01.2023 18:45;161.714
01.01.2023 19:00;159.906
01.01.2023 19:15;157.321
01.01.2023 19:30;152.970
01.01.2023 19:45;149.676
01.01.2023 20:00;147.419
01.01.2023 20:15;142.633
01.01.2023 20:30;138.956
01.01.2023 20:45;133.643
01.01.2023 21:00;133.663
01.01.2023 21:15;127.208
01.01.2023 21:30;124.961
01.01.2023 21:45;123.654
01.01.2023 22:00;120.670
01.01.2023 22:15;118.429
01.01.2023 22:30;114.302
01.01.2023 22:45;109.702
01.01.2023 23:00;105.492
01.01.2023 23:15;101.821
01.01.2023 23:30;97.635
01.01.2023 23:45;92.687
02.01.2023 00:00;88.257
02.01.2023 00:15;87.193
02.01.2023 00:30;82.420
02.01.2023 00:45;79.495
02.01.2023 01:00;77.869
02.01.2023 01:15;76.913
02.01.2023 01:30;74.388
02.01.2023 01:45;71.737
02.01.2023 02:00;72.721
02.01.2023 02:15;70.811
02.01.2023 02:30;70.004
02.01.2023 02:45;70.125
02.01.2023 03:00;69.500
02.01.2023 03:15;69.881
02.01.2023 03:30;69.382
02.01.2023 03:45;68.791
02.01.2023 04:00;71.933
02.01.2023 04:15;71.909
02.01.2023 04:30;72.565
02.01.2023 04:45;74.290
02.01.2023 05:00;77.557
02.01.2023 05:15;79.299
02.01.2023 05:30;81.606
02.01.2023 05:45;86.684
02.01.2023 06:00;91.807
02.01.2023 06:15;96.619
02.01.2023 06:30;100.133
02.01.2023 06:45;104.166
02.01.2023 07:00;109.744
02.01.2023 07:15;114.383
02.01.2023 07:30;116.869
02.01.2023 07:45;122.158
02.01.2023 08:00;127.946
02.01.2023 08:15;130.977
02.01.2023 08:30;132.798
02.01.2023 08:45;137.406
02.01.2023 09:00;139.859
02.01.2023 09:15;143.949
02.01.2023 09:30;146.336
02.01.2023 09:45;147.104
02.01.2023 10:00;150.717
02.01.2023 10:15;151.835
02.01.2023 10:30;152.811
02.01.2023 10:45;155.687
02.01.2023 11:00;157.898
02.01.2023 11:15;160.235
02.01.2023 11:30;160.132
02.01.2023 11:45;163.753
02.01.2023 12:00;166.054
02.01.2023 12:15;167.384
02.01.2023 12:30;166.527
02.01.2023 12:45;165.522
02.01.2023 13:00;165.358
02.01.2023 13:15;160.976
02.01.2023 13:30;160.118
02.01.2023 13:45;157.365
02.01.2023 14:00;157.772
02.01.2023 14:15;158.070
02.01.2023 14:30;157.541
02.01.2023 14:45;158.171
02.01.2023 15:00;158.312
02.01.2023 15:15;156.796
02.01.2023 15:30;157.629
02.01.2023 15:45;157.193
02.01.2023 16:00;161.712
02.01.2023 16:15;163.532
02.01.2023 16:30;167.122
02.01.2023 16:45;169.392
02.01.2023 17:00;173.740
02.01.2023 17:15;176.875
02.01.2023 17:30;177.917
02.01.2023 17:45;177.653
02.01.2023 18:00;178.742
02.01.2023 18:15;179.037
02.01.2023 18:30;175.984
02.01.2023 18:45;176.343
02.01.2023 19:00;171.542
02.01.2023 19:15;170.304
02.01.2023 19:30;167.153
02.01.2023 19:45;163.443
02.01.2023 20:00;159.586
02.01.2023 20:15;154.155
02.01.2023 20:30;150.565
02.01.2023 20:45;148.310
02.01.2023 21:00;143.850
02.01.2023 21:15;136.663
02.01.2023 21:30;134.921
02.01.2023 21:45;131.402
02.01.2023 22:00;130.214
02.01.2023 22:15;125.423
02.01.2023 22:30;122.126
02.01.2023 22:45;116.029
02.01.2023 23:00;110.713
02.01.2023 23:15;107.636
02.01.2023 23:30;102.411
02.01.2023 23:45;98.047
03.01.2023 00:00;95.266
03.01.2023 00:15;91.254
03.01.2023 00:30;88.174
03.01.2023 00:45;85.046
03.01.2023 01:00;82.435
03.01.2023 01:15;81.169
03.01.2023 01:30;78.023
03.01.2023 01:45;76.349
03.01.2023 02:00;76.146
03.01.2023 02:15;74.232
03.01.2023 02:30;71.905
03.01.2023 02:45;73.986
03.01.2023 03:00;71.438
03.01.2023 03:15;72.447
03.01.2023 03:30;73.855
03.01.2023 03:45;74.519
03.01.2023 04:00;75.096
03.01.2023 04:15;75.955
03.01.2023 04:30;77.343
03.01.2023 04:45;78.256
03.01.2023 05:00;81.471
03.01.2023 05:15;84.512
03.01.2023 05:30;86.995
03.01.2023 05:45;91.567
03.01.2023 06:00;97.270
03.01.2023 06:15;100.460
03.01.2023 06:30;104.736
03.01.2023 06:45;109.385
03.01.2023 07:00;116.792
03.01.2023 07:15;121.428
03.01.2023 07:30;125.964
03.01.2023 07:45;129.869
03.01.2023 08:00;137.106
03.01.2023 08:15;137.798
03.01.2023 08:30;138.860
03.01.2023 08:45;143.141
03.01.2023 09:00;145.146
03.01.2023 09:15;148.494
03.01.2023 09:30;147.897
03.01.2023 09:45;149.494
03.01.2023 10:00;151.251
03.01.2023 10:15;153.109
03.01.2023 10:30;153.919
03.01.2023 10:45;154.193
03.01.2023 11:00;154.697
03.01.2023 11:15;158.351
03.01.2023 11:30;159.462
03.01.2023 11:45;161.267
03.01.2023 12:00;161.615
03.01.2023 12:15;163.253
03.01.2023 12:30;162.455
03.01.2023 12:45;161.980
03.01.2023 13:00;161.008
03.01.2023 13:15;161.942
03.01.2023 13:30;159.324
03.01.2023 13:45;161.103
03.01.2023 14:00;158.811
03.01.2023 14:15;159.650
03.01.2023 14:30;158.889
03.01.2023 14:45;159.943
03.01.2023 15:00;159.970
03.01.2023 15:15;161.230
03.01.2023 15:30;163.162
03.01.2023 15:45;164.292
03.01.2023 16:00;164.622
03.01.2023 16:15;168.103
03.01.2023 16:30;170.410
03.01.2023 16:45;173.406
03.01.2023 17:00;175.315
03.01.2023 17:15;180.088
03.01.2023 17:30;179.984
03.01.2023 17:45;183.147
03.01.2023 18:00;181.498
03.01.2023 18:15;180.858
03.01.2023 18:30;180.216
03.01.2023 18:45;179.234
03.01.2023 19:00;176.162
03.01.2023 19:15;173.932
03.01.2023 19:30;170.034
03.01.2023 19:45;167.163
03.01.2023 20:00;163.271
03.01.2023 20:15;158.273
03.01.2023 20:30;153.918
03.01.2023 20:45;150.711
03.01.2023 21:00;146.571
03.01.2023 21:15;141.218
03.01.2023 21:30;136.789
03.01.2023 21:45;134.507
03.01.2023 22:00;132.044
03.01.2023 22:15;128.913
03.01.2023 22:30;123.031
03.01.2023 22:45;118.616
03.01.2023 23:00;112.613
03.01.2023 23:15;107.145
03.01.2023 23:30;105.241
03.01.2023 23:45;98.331
04.01.2023 00:00;95.559
04.01.2023 00:15;91.446
04.01.2023 00:30;89.484
04.01.2023 00:45;84.102
04.01.2023 01:00;83.479
04.01.2023 01:15;81.561
04.01.2023 01:30;79.523
04.01.2023 01:45;77.430
04.01.2023 02:00;75.494
04.01.2023 02:15;77.204
04.01.2023 02:30;73.942
04.01.2023 02:45;75.720
04.01.2023 03:00;73.222
04.01.2023 03:15;73.068
04.01.2023 03:30;74.157
04.01.2023 03:45;72.561
04.01.2023 04:00;76.468
04.01.2023 04:15;75.006
04.01.2023 04:30;77.401
04.01.2023 04:45;78.606
04.01.2023 05:00;82.208
04.01.2023 05:15;84.499
04.01.2023 05:30;88.058
04.01.2023 05:45;91.522
04.01.2023 06:00;97.160
04.01.2023 06:15;102.820
04.01.2023 06:30;108.925
04.01.2023 06:45;111.494
04.01.2023 07:00;118.083
04.01.2023 07:15;122.192
04.01.2023 07:30;127.211
04.01.2023 07:45;132.704
04.01.2023 08:00;136.370
04.01.2023 08:15;140.874
04.01.2023 08:30;145.988
04.01.2023 08:45;146.294
04.01.2023 09:00;149.593
04.01.2023 09:15;152.699
04.01.2023 09:30;153.254
04.01.2023 09:45;155.892
04.01.2023 10:00;157.611
04.01.2023 10:15;159.332
04.01.2023 10:30;162.287
04.01.2023 10:45;161.249
04.01.2023 11:00;162.658
04.01.2023 11:15;165.377
04.01.2023 11:30;167.138
04.01.2023 11:45;167.373
04.01.2023 12:00;170.578
04.01.2023 12:15;171.665
04.01.2023 12:30;171.467
04.01.2023 12:45;168.688
04.01.2023 13:00;170.854
04.01.2023 13:15;168.718
04.01.2023 13:30;167.891
04.01.2023 13:45;166.546
04.01.2023 14:00;165.226
04.01.2023 14:15;164.291
04.01.2023 14:30;163.086
04.01.2023 14:45;164.967
04.01.2023 15:00;165.076
04.01.2023 15:15;165.536
04.01.2023 15:30;166.357
04.01.2023 15:45;166.362
04.01.2023 16:00;167.841
04.01.2023 16:15;167.025
04.01.2023 16:30;172.119
04.01.2023 16:45;175.481
04.01.2023 17:00;178.491
04.01.2023 17:15;180.405
04.01.2023 17:30;178.526
04.01.2023 17:45;183.808
04.01.2023 18:00;183.180
04.01.2023 18:15;182.276
04.01.2023 18:30;182.190
04.01.2023 18:45;182.293
04.01.2023 19:00;178.905
04.01.2023 19:15;174.076
04.01.2023 19:30;170.566
04.01.2023 19:45;168.130
04.01.2023 20:00;163.994
04.01.2023 20:15;159.001
04.01.2023 20:30;153.983
04.01.2023 20:45;151.609
04.01.2023 21:00;146.012
04.01.2023 21:15;140.483
04.01.2023 21:30;136.870
04.01.2023 21:45;134.423
04.01.2023 22:00;132.437
04.01.2023 22:15;128.328
04.01.2023 22:30;122.558
04.01.2023 22:45;116.929
04.01.2023 23:00;112.598
04.01.2023 23:15;107.955
04.01.2023 23:30;103.744
04.01.2023 23:45;99.592
05.01.2023 00:00;95.952
05.01.2023 00:15;90.083
05.01.2023 00:30;87.908
05.01.2023 00:45;85.486
05.01.2023 01:00;81.382
05.01.2023 01:15;79.271
05.01.2023 01:30;77.894
05.01.2023 01:45;75.424
05.01.2023 02:00;76.546
05.01.2023 02:15;73.972
05.01.2023 02:30;71.493
05.01.2023 02:45;73.295
05.01.2023 03:00;71.615
05.01.2023 03:15;71.392
05.01.2023 03:30;72.354
05.01.2023 03:45;71.104
05.01.2023 04:00;73.814
05.01.2023 04:15;73.583
05.01.2023 04:30;74.797
05.01.2023 04:45;75.402
05.01.2023 05:00;80.631
05.01.2023 05:15;83.539
05.01.2023 05:30;87.026
05.01.2023 05:45;90.588
05.01.2023 06:00;97.175
05.01.2023 06:15;101.525
05.01.2023 06:30;105.799
05.01.2023 06:45;111.889
05.01.2023 07:00;117.634
05.01.2023 07:15;123.107
05.01.2023 07:30;127.756
05.01.2023 07:45;132.954
05.01.2023 08:00;136.839
05.01.2023 08:15;138.514
05.01.2023 08:30;141.196
05.01.2023 08:45;142.947
05.01.2023 09:00;144.026
05.01.2023 09:15;147.101
05.01.2023 09:30;148.685
05.01.2023 09:45;149.352
05.01.2023 10:00;149.634
05.01.2023 10:15;149.427
05.01.2023 10:30;150.028
05.01.2023 10:45;150.840
05.01.2023 11:00;151.147
05.01.2023 11:15;152.789
05.01.2023 11:30;153.686
05.01.2023 11:45;154.122
05.01.2023 12:00;156.248
05.01.2023 12:15;156.638
05.01.2023 12:30;154.320
05.01.2023 12:45;155.463
05.01.2023 13:00;154.087
05.01.2023 13:15;153.727
05.01.2023 13:30;152.061
05.01.2023 13:45;151.928
05.01.2023 14:00;152.662
05.01.2023 14:15;151.738
05.01.2023 14:30;153.104
05.01.2023 14:45;150.511
05.01.2023 15:00;151.733
05.01.2023 15:15;153.443
05.01.2023 15:30;153.627
05.01.2023 15:45;155.147
05.01.2023 16:00;158.042
05.01.2023 16:15;160.896
05.01.2023 16:30;164.861
05.01.2023 16:45;170.929
05.01.2023 17:00;173.912
05.01.2023 17:15;178.573
05.01.2023 17:30;178.142
05.01.2023 17:45;181.806
05.01.2023 18:00;182.079
05.01.2023 18:15;179.529
05.01.2023 18:30;179.760
05.01.2023 18:45;178.238
05.01.2023 19:00;174.453
05.01.2023 19:15;174.156
05.01.2023 19:30;171.960
05.01.2023 19:45;165.218
05.01.2023 20:00;161.848
05.01.2023 20:15;158.033
05.01.2023 20:30;152.034
05.01.2023 20:45;148.776
05.01.2023 21:00;144.076
05.01.2023 21:15;139.887
05.01.2023 21:30;136.032
05.01.2023 21:45;132.892
05.01.2023 22:00;130.955
05.01.2023 22:15;127.585
05.01.2023 22:30;123.144
05.01.2023 22:45;117.829
05.01.2023 23:00;112.370
05.01.2023 23:15;108.002
05.01.2023 23:30;101.218
05.01.2023 23:45;98.304
06.01.2023 00:00;93.911
06.01.2023 00:15;90.595
06.01.2023 00:30;85.538
06.01.2023 00:45;84.104
06.01.2023 01:00;82.273
06.01.2023 01:15;78.888
06.01.2023 01:30;77.255
06.01.2023 01:45;76.291
06.01.2023 02:00;74.485
06.01.2023 02:15;72.635
06.01.2023 02:30;72.895
06.01.2023 02:45;72.188
06.01.2023 03:00;70.158
06.01.2023 03:15;72.156
06.01.2023 03:30;71.147
06.01.2023 03:45;72.903
06.01.2023 04:00;72.751
06.01.2023 04:15;74.510
06.01.2023 04:30;76.164
06.01.2023 04:45;75.702
06.01.2023 05:00;81.447
06.01.2023 05:15;80.677
06.01.2023 05:30;87.523
06.01.2023 05:45;88.475
06.01.2023 06:00;96.057
06.01.2023 06:15;101.678
06.01.2023 06:30;103.602
06.01.2023 06:45;110.201
06.01.2023 07:00;115.464
06.01.2023 07:15;122.476
06.01.2023 07:30;125.681
06.01.2023 07:45;131.756
06.01.2023 08:00;137.583
06.01.2023 08:15;141.158
06.01.2023 08:30;142.333
06.01.2023 08:45;146.095
06.01.2023 09:00;148.268
06.01.2023 09:15;151.740
06.01.2023 09:30;153.853
06.01.2023 09:45;156.527
06.01.2023 10:00;157.844
06.01.2023 10:15;161.840
06.01.2023 10:30;160.520
06.01.2023 10:45;162.163
06.01.2023 11:00;159.961
06.01.2023 11:15;161.787
06.01.2023 11:30;162.349
06.01.2023 11:45;160.661
06.01.2023 12:00;160.335
06.01.2023 12:15;160.802
06.01.2023 12:30;161.820
06.01.2023 12:45;158.490
06.01.2023 13:00;157.976
06.01.2023 13:15;155.643
06.01.2023 13:30;155.889
06.01.2023 13:45;155.109
06.01.2023 14:00;152.687
06.01.2023 14:15;155.717
06.01.2023 14:30;154.939
06.01.2023 14:45;154.860
06.01.2023 15:00;154.248
06.01.2023 15:15;153.171
06.01.2023 15:30;153.948
06.01.2023 15:45;154.457
06.01.2023 16:00;158.334
06.01.2023 16:15;161.457
06.01.2023 16:30;165.980
06.01.2023 16:45;172.487
06.01.2023 17:00;175.286
06.01.2023 17:15;177.198
06.01.2023 17:30;179.642
06.01.2023 17:45;180.123
06.01.2023 18:00;180.315
06.01.2023 18:15;179.910
06.01.2023 18:30;179.399
06.01.2023 18:45;177.676
06.01.2023 19:00;174.264
06.01.2023 19:15;170.429
06.01.2023 19:30;167.874
06.01.2023 19:45;163.483
06.01.2023 20:00;159.553
06.01.2023 20:15;156.175
06.01.2023 20:30;151.268
06.01.2023 20:45;148.475
06.01.2023 21:00;143.353
06.01.2023 21:15;141.446
06.01.2023 21:30;136.808
06.01.2023 21:45;132.454
06.01.2023 22:00;132.197
06.01.2023 22:15;129.739
06.01.2023 22:30;123.809
06.01.2023 22:45;122.513
06.01.2023 23:00;117.151
06.01.2023 23:15;113.848
06.01.2023 23:30;108.051
06.01.2023 23:45;103.724
07.01.2023 00:00;101.314
07.01.2023 00:15;96.206
07.01.2023 00:30;92.741
07.01.2023 00:45;88.890
07.01.2023 01:00;86.221
07.01.2023 01:15;83.870
07.01.2023 01:30;81.463
07.01.2023 01:45;80.814
07.01.2023 02:00;78.083
07.01.2023 02:15;76.719
07.01.2023 02:30;75.458
07.01.2023 02:45;74.554
07.01.2023 03:00;73.761
07.01.2023 03:15;73.460
07.01.2023 03:30;72.391
07.01.2023 03:45;72.902
07.01.2023 04:00;72.978
07.01.2023 04:15;74.142
07.01.2023 04:30;73.662
07.01.2023 04:45;74.913
07.01.2023 05:00;76.640
07.01.2023 05:15;76.299
07.01.2023 05:30;77.999
07.01.2023 05:45;81.302
07.01.2023 06:00;82.724
07.01.2023 06:15;84.572
07.01.2023 06:30;86.090
07.01.2023 06:45;87.927
07.01.2023 07:00;93.735
07.01.2023 07:15;94.329
07.01.2023 07:30;99.567
07.01.2023 07:45;104.189
07.01.2023 08:00;109.166
07.01.2023 08:15;113.486
07.01.2023 08:30;117.417
07.01.2023 08:45;123.476
07.01.2023 09:00;127.514
07.01.2023 09:15;133.860
07.01.2023 09:30;136.304
07.01.2023 09:45;138.993
07.01.2023 10:00;143.955
07.01.2023 10:15;145.765
07.01.2023 10:30;145.364
07.01.2023 10:45;148.413
07.01.2023 11:00;152.392
07.01.2023 11:15;156.363
07.01.2023 11:30;155.416
07.01.2023 11:45;155.854
07.01.2023 12:00;159.341
07.01.2023 12:15;159.597
07.01.2023 12:30;160.320
07.01.2023 12:45;161.526
07.01.2023 13:00;160.164
07.01.2023 13:15;157.846
07.01.2023 13:30;156.854
07.01.2023 13:45;153.994
07.01.2023 14:00;155.569
07.01.2023 14:15;152.593
07.01.2023 14:30;152.407
07.01.2023 14:45;151.321
07.01.2023 15:00;149.037
07.01.2023 15:15;148.660
07.01.2023 15:30;149.175
07.01.2023 15:45;149.195
07.01.2023 16:00;151.424
07.01.2023 16:15;154.126
07.01.2023 16:30;158.672
07.01.2023 16:45;165.202
07.01.2023 17:00;169.066
07.01.2023 17:15;172.062
07.01.2023 17:30;175.519
07.01.2023 17:45;176.934
07.01.2023 18:00;176.659
07.01.2023 18:15;175.855
07.01.2023 18:30;176.347
07.01.2023 18:45;175.013
07.01.2023 19:00;173.679
07.01.2023 19:15;168.540
07.01.2023 19:30;166.099
07.01.2023 19:45;163.123
07.01.2023 20:00;157.628
07.01.2023 20:15;154.163
07.01.2023 20:30;150.068
07.01.2023 20:45;146.154
07.01.2023 21:00;142.909
07.01.2023 21:15;137.349
07.01.2023 21:30;135.263
07.01.2023 21:45;132.503
07.01.2023 22:00;130.569
07.01.2023 22:15;127.965
07.01.2023 22:30;124.007
07.01.2023 22:45;122.282
07.01.2023 23:00;115.819
07.01.2023 23:15;112.308
07.01.2023 23:30;110.381
07.01.2023 23:45;105.328
08.01.2023 00:00;100.846
08.01.2023 00:15;97.531
08.01.2023 00:30;93.788
08.01.2023 00:45;90.995
08.01.2023 01:00;87.167
08.01.2023 01:15;85.050
08.01.2023 01:30;82.578
08.01.2023 01:45;80.751
08.01.2023 02:00;79.321
08.01.2023 02:15;77.236
08.01.2023 02:30;76.901
08.01.2023 02:45;74.123
08.01.2023 03:00;74.313
08.01.2023 03:15;73.003
08.01.2023 03:30;73.089
08.01.2023 03:45;72.859
08.01.2023 04:00;72.274
08.01.2023 04:15;73.034
08.01.2023 04:30;72.560
08.01.2023 04:45;72.386
08.01.2023 05:00;73.267
08.01.2023 05:15;74.079
08.01.2023 05:30;74.337
08.01.2023 05:45;75.448
08.01.2023 06:00;74.959
08.01.2023 06:15;76.716
08.01.2023 06:30;78.125
08.01.2023 06:45;79.124
08.01.2023 07:00;82.293
08.01.2023 07:15;85.142
08.01.2023 07:30;89.497
08.01.2023 07:45;92.079
08.01.2023 08:00;98.123
08.01.2023 08:15;101.826
08.01.2023 08:30;105.072
08.01.2023 08:45;111.420
08.01.2023 09:00;117.809
08.01.2023 09:15;122.035
08.01.2023 09:30;129.835
08.01.2023 09:45;130.729
08.01.2023 10:00;136.217
08.01.2023 10:15;141.189
08.01.2023 10:30;145.467
08.01.2023 10:45;145.959
08.01.2023 11:00;148.402
08.01.2023 11:15;151.900
08.01.2023 11:30;152.883
08.01.2023 11:45;152.998
08.01.2023 12:00;151.955
08.01.2023 12:15;154.099
08.01.2023 12:30;153.227
08.01.2023 12:45;153.293
08.01.2023 13:00;151.962
08.01.2023 13:15;151.105
08.01.2023 13:30;150.248
08.01.2023 13:45;146.662
08.01.2023 14:00;147.688
08.01.2023 14:15;146.399
08.01.2023 14:30;145.699
08.01.2023 14:45;144.421
08.01.2023 15:00;145.177
08.01.2023 15:15;147.796
08.01.2023 15:30;149.835
08.01.2023 15:45;150.097
08.01.2023 16:00;152.273
08.01.2023 16:15;156.970
08.01.2023 16:30;163.069
08.01.2023 16:45;165.474
08.01.2023 17:00;173.070
08.01.2023 17:15;176.409
08.01.2023 17:30;178.168
08.01.2023 17:45;180.519
08.01.2023 18:00;182.570
08.01.2023 18:15;180.601
08.01.2023 18:30;181.576
08.01.2023 18:45;178.735
08.01.2023 19:00;175.777
08.01.2023 19:15;173.651
08.01.2023 19:30;169.420
08.01.2023 19:45;166.504
08.01.2023 20:00;163.079
08.01.2023 20:15;157.615
08.01.2023 20:30;150.156
08.01.2023 20:45;146.393
08.01.2023 21:00;141.471
08.01.2023 21:15;138.521
08.01.2023 21:30;133.603
08.01.2023 21:45;131.721
08.01.2023 22:00;130.213
08.01.2023 22:15;125.083
08.01.2023 22:30;118.945
08.01.2023 22:45;113.258
08.01.2023 23:00;108.128
08.01.2023 23:15;103.798
08.01.2023 23:30;99.760
08.01.2023 23:45;96.340
09.01.2023 00:00;90.377
09.01.2023 00:15;86.204
09.01.2023 00:30;84.202
09.01.2023 00:45;80.308
09.01.2023 01:00;79.372
09.01.2023 01:15;77.350
09.01.2023 01:30;75.992
09.01.2023 01:45;74.389
09.01.2023 02:00;72.674
09.01.2023 02:15;72.109
09.01.2023 02:30;72.618
09.01.2023 02:45;71.994
09.01.2023 03:00;71.190
09.01.2023 03:15;71.627
09.01.2023 03:30;71.506
09.01.2023 03:45;72.586
09.01.2023 04:00;72.943
09.01.2023 04:15;75.157
09.01.2023 04:30;76.591
09.01.2023 04:45;79.713
09.01.2023 05:00;82.451
09.01.2023 05:15;83.745
09.01.2023 05:30;89.252
09.01.2023 05:45;94.232
09.01.2023 06:00;104.202
09.01.2023 06:15;112.267
09.01.2023 06:30;119.671
09.01.2023 06:45;127.232
09.01.2023 07:00;132.831
09.01.2023 07:15;139.580
09.01.2023 07:30;140.547
09.01.2023 07:45;145.329
09.01.2023 08:00;147.871
09.01.2023 08:15;148.837
09.01.2023 08:30;149.906
09.01.2023 08:45;150.449
09.01.2023 09:00;155.029
09.01.2023 09:15;155.589
09.01.2023 09:30;154.291
09.01.2023 09:45;154.791
09.01.2023 10:00;154.425
09.01.2023 10:15;155.006
09.01.2023 10:30;156.533
09.01.2023 10:45;155.958
09.01.2023 11:00;156.304
09.01.2023 11:15;157.822
09.01.2023 11:30;159.803
09.01.2023 11:45;158.640
09.01.2023 12:00;161.051
09.01.2023 12:15;163.092
09.01.2023 12:30;163.776
09.01.2023 12:45;167.484
09.01.2023 13:00;164.644
09.01.2023 13:15;164.502
09.01.2023 13:30;161.256
09.01.2023 13:45;158.728
09.01.2023 14:00;158.845
09.01.2023 14:15;159.281
09.01.2023 14:30;160.645
09.01.2023 14:45;159.798
09.01.2023 15:00;160.500
09.01.2023 15:15;159.300
09.01.2023 15:30;160.942
09.01.2023 15:45;161.847
09.01.2023 16:00;163.896
09.01.2023 16:15;164.752
09.01.2023 16:30;168.519
09.01.2023 16:45;172.456
09.01.2023 17:00;177.678
09.01.2023 17:15;179.517
09.01.2023 17:30;182.688
09.01.2023 17:45;183.588
09.01.2023 18:00;184.923
09.01.2023 18:15;184.895
09.01.2023 18:30;182.769
09.01.2023 18:45;182.070
09.01.2023 19:00;181.053
09.01.2023 19:15;177.133
09.01.2023 19:30;171.539
09.01.2023 19:45;171.258
09.01.2023 20:00;165.410
09.01.2023 20:15;158.745
09.01.2023 20:30;154.572
09.01.2023 20:45;150.689
09.01.2023 21:00;146.867
09.01.2023 21:15;141.658
09.01.2023 21:30;136.546
09.01.2023 21:45;133.943
09.01.2023 22:00;131.800
09.01.2023 22:15;124.897
09.01.2023 22:30;121.260
09.01.2023 22:45;116.124
09.01.2023 23:00;109.249
09.01.2023 23:15;105.051
09.01.2023 23:30;100.389
09.01.2023 23:45;95.262
10.01.2023 00:00;90.456
10.01.2023 00:15;88.889
10.01.2023 00:30;83.023
10.01.2023 00:45;81.862
10.01.2023 01:00;79.597
10.01.2023 01:15;77.742
10.01.2023 01:30;74.977
10.01.2023 01:45;74.891
10.01.2023 02:00;74.268
10.01.2023 02:15;72.865
10.01.2023 02:30;72.158
10.01.2023 02:45;72.581
10.01.2023 03:00;71.789
10.01.2023 03:15;71.892
10.01.2023 03:30;72.863
10.01.2023 03:45;72.490
10.01.2023 04:00;74.750
10.01.2023 04:15;75.403
10.01.2023 04:30;78.554
10.01.2023 04:45;81.853
10.01.2023 05:00;84.400
10.01.2023 05:15;86.469
10.01.2023 05:30;91.013
10.01.2023 05:45;96.047
10.01.2023 06:00;105.172
10.01.2023 06:15;113.162
10.01.2023 06:30;120.483
10.01.2023 06:45;128.182
10.01.2023 07:00;135.689
10.01.2023 07:15;139.265
10.01.2023 07:30;142.174
10.01.2023 07:45;144.680
10.01.2023 08:00;149.030
10.01.2023 08:15;149.287
10.01.2023 08:30;151.669
10.01.2023 08:45;151.881
10.01.2023 09:00;153.212
10.01.2023 09:15;153.434
10.01.2023 09:30;152.741
10.01.2023 09:45;154.150
10.01.2023 10:00;154.327
10.01.2023 10:15;157.208
10.01.2023 10:30;157.169
10.01.2023 10:45;157.291
10.01.2023 11:00;158.247
10.01.2023 11:15;159.575
10.01.2023 11:30;158.878
10.01.2023 11:45;160.961
10.01.2023 12:00;163.565
10.01.2023 12:15;161.815
10.01.2023 12:30;161.050
10.01.2023 12:45;157.323
10.01.2023 13:00;157.952
10.01.2023 13:15;156.949
10.01.2023 13:30;157.461
10.01.2023 13:45;157.093
10.01.2023 14:00;158.184
10.01.2023 14:15;158.292
10.01.2023 14:30;157.803
10.01.2023 14:45;158.726
10.01.2023 15:00;158.602
10.01.2023 15:15;159.592
10.01.2023 15:30;160.380